Location: Devore Heights
(34.2372°N, 117.4156°W)
Time: 12:35:17
(UTC+00:00)

Vanguard 1 Rocket - Pass Details

Date: 22 September 2024
Orbit: 650 x 4218 km, 34.3° (Epoch: 09 October)

Event Time Altitude Azimuth Distance (km) Brightness Sun altitude
Exits shadow 11:25:47 40° 264° (W) 3,097 9.5 -27.6°
Maximum altitude 11:32:44 90° 180° (S) 2,877 9.7 -26.3°
Drops below altitude 10° 11:56:37 10° 89° (E) 7,286 13.0 -21.6°
Sets 12:02:47 0° 90° (E) 8,448 13.7 -20.3°
